When you browse on this site, cookies collect data to enhance your experience and personalize the content and advertising you see.
Visit our Privacy Policy to learn more. By continuing to use the site, you agree to this use of cookies and data.
  • In Österreich
  • Länderverzeichnis
  • Für 7 Tage
  • Wassertemperatur
  • Wetterkarte
  • News
  • Widgets
  • user-avatar
    Anmelden

    Stündliche Wetter Opole

    Heute, 3 April, Freitag

    Zeit Temperatur Niederschläge Wind Luftdruck Luftfeuchtigkeit
    00:00 +3°C° 0 mm 4 m/S 741 mmHg 61%
    01:00 +1°C° 0 mm 4 m/S 741 mmHg 60%
    02:00 +1°C° 0 mm 4 m/S 741 mmHg 63%
    03:00 +2°C° 0 mm 3 m/S 741 mmHg 65%
    04:00 +1°C° 0 mm 3 m/S 740 mmHg 68%
    05:00 +2°C° 0 mm 3 m/S 741 mmHg 68%
    06:00 +3°C° 0 mm 4 m/S 741 mmHg 68%
    07:00 +4°C° 0 mm 4 m/S 742 mmHg 68%
    08:00 +3°C° 0 mm 5 m/S 742 mmHg 70%
    09:00 +5°C° 0 mm 5 m/S 742 mmHg 72%
    10:00 +5°C° 0 mm 5 m/S 743 mmHg 73%
    11:00 +6°C° 0.1 mm 5 m/S 743 mmHg 71%
    12:00 +7°C° 0.1 mm 5 m/S 744 mmHg 68%
    13:00 +7°C° 0.1 mm 5 m/S 744 mmHg 65%
    14:00 +7°C° 0.1 mm 5 m/S 744 mmHg 62%
    15:00 +8°C° 0.1 mm 5 m/S 744 mmHg 59%
    16:00 +8°C° 0.1 mm 5 m/S 744 mmHg 56%
    17:00 +7°C° 0 mm 5 m/S 745 mmHg 60%
    18:00 +5°C° 0 mm 4 m/S 745 mmHg 63%
    19:00 +4°C° 0 mm 3 m/S 746 mmHg 67%
    20:00 +3°C° 0 mm 3 m/S 746 mmHg 70%
    21:00 +3°C° 0 mm 2 m/S 747 mmHg 73%
    22:00 +3°C° 0 mm 2 m/S 748 mmHg 76%
    23:00 +2°C° 0 mm 2 m/S 748 mmHg 78%

    Morgen, 4 April, Samstag

    Zeit Temperatur Niederschläge Wind Luftdruck Luftfeuchtigkeit
    00:00 +2°C° 0 mm 2 m/S 748 mmHg 80%
    01:00 +1°C° 0 mm 2 m/S 749 mmHg 81%
    02:00 +1°C° 0 mm 2 m/S 749 mmHg 83%
    03:00 +1°C° 0 mm 2 m/S 750 mmHg 84%
    04:00 +1°C° 0 mm 1 m/S 750 mmHg 85%
    05:00 +1°C° 0 mm 2 m/S 751 mmHg 82%
    06:00 +2°C° 0 mm 2 m/S 751 mmHg 79%
    07:00 +3°C° 0 mm 2 m/S 752 mmHg 76%
    08:00 +4°C° 0 mm 2 m/S 752 mmHg 75%
    09:00 +4°C° 0 mm 3 m/S 753 mmHg 74%
    10:00 +5°C° 0 mm 3 m/S 753 mmHg 73%
    11:00 +7°C° 0 mm 3 m/S 753 mmHg 66%
    12:00 +8°C° 0 mm 3 m/S 754 mmHg 59%
    13:00 +9°C° 0 mm 3 m/S 754 mmHg 53%
    14:00 +9°C° 0 mm 3 m/S 754 mmHg 51%
    15:00 +9°C° 0 mm 3 m/S 754 mmHg 50%
    16:00 +9°C° 0 mm 3 m/S 754 mmHg 49%
    17:00 +7°C° 0 mm 2 m/S 755 mmHg 55%
    18:00 +6°C° 0 mm 2 m/S 755 mmHg 60%
    19:00 +5°C° 0 mm 2 m/S 756 mmHg 65%
    20:00 +5°C° 0 mm 1 m/S 757 mmHg 67%
    21:00 +4°C° 0 mm 1 m/S 757 mmHg 68%
    22:00 +4°C° 0 mm 1 m/S 758 mmHg 69%
    23:00 +3°C° 0 mm 1 m/S 758 mmHg 69%

    übermorgen, 5 April, Sonntag

    Zeit Temperatur Niederschläge Wind Luftdruck Luftfeuchtigkeit
    00:00 +3°C° 0 mm 1 m/S 759 mmHg 68%
    01:00 +3°C° 0 mm 1 m/S 759 mmHg 68%
    02:00 +2°C° 0 mm 1 m/S 759 mmHg 68%
    03:00 +1°C° 0 mm 2 m/S 759 mmHg 68%
    04:00 +1°C° 0 mm 2 m/S 759 mmHg 68%
    05:00 +2°C° 0 mm 2 m/S 760 mmHg 64%
    06:00 +3°C° 0 mm 2 m/S 760 mmHg 61%
    07:00 +3°C° 0 mm 3 m/S 760 mmHg 58%
    08:00 +4°C° 0 mm 3 m/S 760 mmHg 53%
    09:00 +6°C° 0 mm 4 m/S 760 mmHg 47%
    10:00 +8°C° 0 mm 4 m/S 760 mmHg 42%
    11:00 +10°C° 0 mm 4 m/S 760 mmHg 41%
    12:00 +9°C° 0 mm 5 m/S 760 mmHg 40%
    13:00 +10°C° 0 mm 5 m/S 759 mmHg 39%
    14:00 +10°C° 0 mm 5 m/S 759 mmHg 39%
    15:00 +10°C° 0 mm 5 m/S 759 mmHg 39%
    16:00 +10°C° 0 mm 5 m/S 758 mmHg 40%
    17:00 +10°C° 0 mm 4 m/S 758 mmHg 45%
    18:00 +7°C° 0 mm 4 m/S 758 mmHg 50%
    19:00 +5°C° 0 mm 4 m/S 758 mmHg 55%
    20:00 +5°C° 0 mm 4 m/S 758 mmHg 57%
    21:00 +4°C° 0 mm 3 m/S 758 mmHg 58%
    22:00 +4°C° 0 mm 3 m/S 758 mmHg 59%
    23:00 +3°C° 0 mm 4 m/S 758 mmHg 61%

    6 April, Montag

    Zeit Temperatur Niederschläge Wind Luftdruck Luftfeuchtigkeit
    00:00 +3°C° 0 mm 4 m/S 758 mmHg 63%
    01:00 +3°C° 0 mm 4 m/S 758 mmHg 64%
    02:00 +3°C° 0 mm 4 m/S 758 mmHg 66%
    03:00 +3°C° 0 mm 4 m/S 758 mmHg 67%
    04:00 +1°C° 0 mm 4 m/S 757 mmHg 69%
    05:00 +3°C° 0 mm 4 m/S 757 mmHg 65%
    06:00 +5°C° 0 mm 5 m/S 757 mmHg 62%
    07:00 +6°C° 0 mm 5 m/S 757 mmHg 58%
    08:00 +8°C° 0 mm 6 m/S 757 mmHg 54%
    09:00 +10°C° 0 mm 7 m/S 757 mmHg 50%
    10:00 +14°C° 0 mm 7 m/S 757 mmHg 46%
    11:00 +13°C° 0 mm 8 m/S 757 mmHg 46%
    12:00 +15°C° 0 mm 8 m/S 757 mmHg 46%
    13:00 +16°C° 0 mm 8 m/S 757 mmHg 45%
    14:00 +15°C° 0 mm 8 m/S 757 mmHg 45%
    15:00 +15°C° 0 mm 8 m/S 757 mmHg 44%
    16:00 +15°C° 0 mm 8 m/S 757 mmHg 44%
    17:00 +12°C° 0 mm 7 m/S 757 mmHg 47%
    18:00 +11°C° 0 mm 6 m/S 757 mmHg 50%
    19:00 +9°C° 0 mm 6 m/S 757 mmHg 53%
    20:00 +9°C° 0 mm 5 m/S 757 mmHg 54%
    21:00 +8°C° 0 mm 5 m/S 757 mmHg 54%
    22:00 +7°C° 0 mm 5 m/S 758 mmHg 55%
    23:00 +7°C° 0 mm 5 m/S 758 mmHg 55%

    7 April, Dienstag

    Zeit Temperatur Niederschläge Wind Luftdruck Luftfeuchtigkeit
    00:00 +6°C° 0 mm 5 m/S 758 mmHg 55%
    01:00 +6°C° 0 mm 5 m/S 758 mmHg 55%
    02:00 +6°C° 0 mm 5 m/S 758 mmHg 54%
    03:00 +5°C° 0 mm 5 m/S 759 mmHg 53%
    04:00 +5°C° 0 mm 5 m/S 759 mmHg 52%
    05:00 +5°C° 0 mm 5 m/S 759 mmHg 49%
    06:00 +5°C° 0 mm 6 m/S 759 mmHg 47%
    07:00 +7°C° 0 mm 6 m/S 759 mmHg 45%
    08:00 +8°C° 0 mm 6 m/S 759 mmHg 40%
    09:00 +10°C° 0 mm 7 m/S 760 mmHg 36%
    10:00 +12°C° 0 mm 7 m/S 760 mmHg 32%
    11:00 +14°C° 0 mm 6 m/S 760 mmHg 32%
    12:00 +15°C° 0 mm 6 m/S 760 mmHg 31%
    13:00 +16°C° 0 mm 5 m/S 760 mmHg 30%
    14:00 +16°C° 0 mm 5 m/S 760 mmHg 32%
    15:00 +17°C° 0 mm 4 m/S 759 mmHg 33%
    16:00 +17°C° 0 mm 4 m/S 759 mmHg 35%
    17:00 +14°C° 0 mm 3 m/S 759 mmHg 41%
    18:00 +12°C° 0 mm 3 m/S 759 mmHg 47%
    19:00 +10°C° 0 mm 2 m/S 759 mmHg 53%
    20:00 +9°C° 0 mm 2 m/S 760 mmHg 54%
    21:00 +8°C° 0 mm 2 m/S 760 mmHg 55%
    22:00 +7°C° 0 mm 2 m/S 760 mmHg 57%
    23:00 +7°C° 0 mm 2 m/S 760 mmHg 57%

    8 April, Mittwoch

    Zeit Temperatur Niederschläge Wind Luftdruck Luftfeuchtigkeit
    00:00 +6°C° 0 mm 2 m/S 760 mmHg 57%
    01:00 +7°C° 0 mm 1 m/S 761 mmHg 58%
    02:00 +7°C° 0 mm 1 m/S 760 mmHg 59%
    03:00 +6°C° 0 mm 1 m/S 760 mmHg 59%
    04:00 +6°C° 0 mm 1 m/S 760 mmHg 60%
    05:00 +7°C° 0 mm 1 m/S 760 mmHg 59%
    06:00 +8°C° 0 mm 1 m/S 760 mmHg 58%
    07:00 +9°C° 0 mm 1 m/S 761 mmHg 57%
    08:00 +11°C° 0 mm 1 m/S 760 mmHg 50%
    09:00 +13°C° 0 mm 1 m/S 760 mmHg 44%
    10:00 +16°C° 0 mm 1 m/S 760 mmHg 38%
    11:00 +18°C° 0 mm 1 m/S 760 mmHg 35%
    12:00 +19°C° 0 mm 1 m/S 760 mmHg 32%
    13:00 +20°C° 0 mm 1 m/S 759 mmHg 29%
    14:00 +20°C° 0 mm 1 m/S 759 mmHg 29%
    15:00 +20°C° 0 mm 1 m/S 759 mmHg 29%
    16:00 +20°C° 0 mm 1 m/S 758 mmHg 28%
    17:00 +18°C° 0 mm 1 m/S 758 mmHg 32%
    18:00 +15°C° 0 mm 1 m/S 758 mmHg 37%
    19:00 +13°C° 0 mm 1 m/S 758 mmHg 41%
    20:00 +12°C° 0 mm 1 m/S 758 mmHg 43%
    21:00 +11°C° 0 mm 1 m/S 758 mmHg 44%
    22:00 +11°C° 0 mm 1 m/S 758 mmHg 45%
    23:00 +10°C° 0 mm 1 m/S 758 mmHg 46%
    Mehr zeigen